www.pogodaiklimat.ru

Погода и климат >> Архив погоды >> Австрия >> Рец


ПОГОДА в Реце

  • Прогноз погоды в Реце
  • Монитор погоды в Реце

АРХИВ ПОГОДЫ в Реце

Время (UTC), дата Ветер
(напр.,м/с)
 
Видим.   Явления Облачность Т
(С)
Тd
(С)
f
(%)
Тe
(С)
Тes
(С)
Комфортность P
(гПа)
Po
(гПа)
Тmin
(С)
Tmax
(С)
R
(мм)
R24
(мм)
S
(см)
01 9.06 С 2 н/о н/о +17.5 +11.2 67 +18 +18 1024.9 987.4
02 9.06 С 3 н/о н/о +17.1 +9.6 61 +17 +17 1024.9 987.3
03 9.06 С 3 н/о н/о +16.7 +8.4 58 +17 +17 1025.0 987.3
04 9.06 С 2 н/о н/о +15.7 +8.0 60 +16 +16 1024.9 987.1
05 9.06 СВ 2 13 км 3/3 900 м
[Cu hum]
+17.7 +8.7 56 +18 +20 1024.8 987.3
06 9.06 СВ 3 20 км 4/4 900 м
[Cu hum]
+18.1 +8.7 54 +18 +21 1025.0 987.5 +15.5 +22.7
07 9.06 СВ 5 н/о н/о +19.8 +10.2 54 +21 +21 комфорт 1024.7 987.5
08 9.06 СВ 4 н/о н/о +20.9 +11.7 56 +23 +23 комфорт 1024.0 986.9
09 9.06 СВ 4 н/о н/о +23.0 +10.9 46 +25 +25 комфорт 1023.2 986.4
10 9.06 СВ 6 н/о н/о +24.3 +10.6 42 +25 +25 комфорт 1022.6 986.0
11 9.06 СВ 5 н/о н/о +24.5 +11.9 45 +26 +26 жарко 1022.2 985.6
12 9.06 СВ 5 30 км 3/3 1020 м
[Cu hum]
+25.3 +12.0 43 +27 +33 жарко 1021.5 985.1
13 9.06 В 4 н/о н/о +25.3 +12.7 46 +27 +27 жарко 1020.8 984.4
14 9.06 В 3 н/о н/о +25.9 +15.2 52 +29 +29 душно 1020.0 983.7
15 9.06 В 5 н/о н/о +26.2 +16.0 53 +29 +29 жарко 1019.3 983.1
16 9.06 В 4 н/о н/о +25.8 +15.8 54 +29 +29 душно 1018.8 982.6
17 9.06 ЮВ 2 н/о н/о +25.4 +16.3 57 +29 +29 душно 1018.3 982.1
18 9.06 ЮВ 2 17 км 3/0
[Ci fib]
+24.5 +16.4 61 +28 +28 душно 1018.1 981.8 +17.9 +26.2
19 9.06 В 2 н/о н/о +23.1 +17.2 69 +28 +28 душно 1018.1 981.6
20 9.06 СВ 3 н/о н/о +21.3 +16.9 76 +25 +25 комфорт 1018.7 982.0
21 9.06 СВ 4 н/о н/о +20.5 +15.8 74 +24 +24 комфорт 1018.5 981.6
22 9.06 СВ 4 н/о н/о +19.5 +15.4 77 +21 +21 комфорт 1018.2 981.2
23 9.06 СВ 4 н/о н/о +19.0 +15.6 81 +20 +20 1017.9 980.9
00 10.06 СВ 4 н/о н/о +18.8 +15.5 81 +20 +20 1018.0 981.0
01 10.06 СВ 4 н/о н/о +18.0 +15.2 84 +18 +18 1017.6 980.5
02 10.06 СВ 4 н/о н/о +17.9 +14.8 82 +18 +18 1016.8 979.7
03 10.06 СВ 4 н/о н/о +17.8 +14.8 83 +18 +18 1016.3 979.2
04 10.06 СВ 4 н/о н/о +17.7 +14.8 83 +17 +17 1016.1 979.0
05 10.06 СВ 4 6000 м 5/5 750 м
[Cu Sc]
+18.7 +15.2 80 +20 +20 1015.9 978.9
06 10.06 СВ 4 10 км 4/1 750 м
[Cu hum Ci fib]
+20.6 +16.1 75 +24 +27 комфорт 1015.3 978.6 +17.4 +24.6
07 10.06 В 2 н/о н/о +23.0 +16.6 67 +28 +28 душно 1014.9 978.5
08 10.06 ЮВ 4 н/о н/о +24.6 +17.2 63 +28 +28 душно 1014.1 977.9
09 10.06 ЮВ 4 н/о н/о +25.2 +17.6 63 +29 +29 душно 1013.9 977.8
10 10.06 ЮВ 3 н/о н/о +26.0 +18.4 63 +31 +31 очень
душно
1013.6 977.6
11 10.06 ЮВ 4 н/о н/о +26.5 +18.4 61 +31 +31 душно 1013.4 977.5
12 10.06 ЮВ 4 25 км 5/5 960 м
[Cu med, cong]
+27.1 +18.3 59 +32 +38 очень
душно
1012.8 977.0
13 10.06 В 4 н/о н/о +28.8 +18.3 53 +34 +34 очень
душно
1011.9 976.3
14 10.06 ЮВ 6 н/о н/о +28.8 +19.1 56 +34 +34 очень
душно
1011.3 975.7
15 10.06 ЮВ 6 н/о н/о +28.5 +18.6 55 +34 +34 очень
душно
1010.9 975.3
16 10.06 ЮВ 6 н/о н/о +27.5 +17.4 54 +32 +32 очень
душно
1009.9 974.2
17 10.06 ЮВ 4 н/о н/о +27.1 +17.1 54 +31 +31 душно 1009.9 974.2
18 10.06 В 4 23 км 1/0
[Ci fib]
+26.4 +17.0 56 +30 +30 душно 1009.8 974.0 +20.1 +29.3
19 10.06 ЮВ 4 н/о н/о +25.5 +17.1 60 +29 +29 душно 1010.1 974.2
20 10.06 В 4 н/о н/о +24.7 +17.7 65 +29 +29 душно 1010.3 974.3
21 10.06 В 4 н/о н/о +23.7 +17.4 68 +28 +28 душно 1010.1 974.0
22 10.06 ЮВ 2 н/о н/о +23.6 +17.4 68 +27 +27 жарко 1010.6 974.4
23 10.06 ЮВ 1 н/о н/о +23.1 +17.3 70 +28 +28 душно 1010.8 974.6
00 11.06 СВ 2 н/о н/о +22.0 +17.3 75 +26 +26 душно 1010.0 973.7
01 11.06 СВ 2 н/о н/о +21.5 +17.2 77 +26 +26 душно 1009.9 973.5
02 11.06 СВ 3 н/о н/о +20.5 +17.2 81 +24 +24 комфорт 1010.0 973.5
03 11.06 СВ 3 н/о н/о +20.2 +17.5 84 +24 +24 комфорт 1010.3 973.7
04 11.06 СВ 3 н/о н/о +20.6 +17.7 83 +25 +25 комфорт 1010.1 973.6
05 11.06 СВ 2 8000 м 1/1 500 м
[Cu hum]
+22.0 +18.0 78 +27 +29 душно 1010.0 973.7
06 11.06 В 3 12 км 1/1 600 м
[Cu hum]
+23.4 +18.8 75 +30 +33 очень
душно
1010.1 974.0 +20.1 +26.5
07 11.06 ЮВ 5 н/о н/о +25.0 +19.1 70 +30 +30 душно 1010.2 974.2
08 11.06 ЮВ 6 н/о н/о +26.6 +19.3 64 +32 +32 очень
душно
1010.3 974.5
09 11.06 ЮВ 6 н/о н/о +27.4 +18.6 59 +32 +32 очень
душно
1010.3 974.6
10 11.06 ЮВ 5 н/о н/о +28.7 +19.3 57 +34 +34 очень
душно
1009.9 974.4
11 11.06 ЮВ 6 н/о н/о +29.0 +18.1 52 +34 +34 очень
душно
1009.9 974.4
12 11.06 ЮВ 5 23 км 1/1 1000 м
[Cu hum]
+29.9 +18.7 51 +35 +43 очень
душно
1009.4 974.0
13 11.06 ЮВ 7 н/о н/о +29.8 +17.8 49 +34 +34 очень
душно
1009.2 973.8
14 11.06 ЮВ 5 н/о н/о +30.0 +18.2 49 +35 +35 очень
душно
1008.8 973.5
15 11.06 ЮВ 6 н/о н/о +29.8 +17.3 47 +34 +34 очень
душно
1008.7 973.3
16 11.06 ЮВ 5 н/о н/о +29.0 +17.8 51 +33 +33 очень
душно
1008.8 973.3
17 11.06 ЮВ 4 н/о н/о +27.6 +17.0 52 +31 +31 душно 1008.9 973.3
18 11.06 В 3 18 км 6/0
[Cs]
+26.9 +17.1 55 +31 +31 душно 1009.2 973.5 +23.2 +30.5
19 11.06 В 3 н/о н/о +26.1 +17.6 59 +30 +30 душно 1009.3 973.5
20 11.06 ЮВ 2 н/о н/о +25.1 +18.7 68 +30 +30 душно 1009.9 974.0
21 11.06 ЮВ 3 н/о н/о +24.2 +18.6 71 +29 +29 душно 1010.3 974.2
22 11.06 В 2 н/о н/о +23.9 +18.5 72 +28 +28 душно 1009.8 973.7
23 11.06 В 3 н/о н/о +22.7 +18.7 78 +28 +28 душно 1009.5 973.3
00 12.06 В 2 н/о н/о +22.0 +18.3 80 +27 +27 душно 1008.9 972.6
01 12.06 В 2 н/о н/о +22.3 +18.0 77 +27 +27 душно 1008.8 972.6
02 12.06 СВ 3 н/о н/о +20.9 +17.6 81 +25 +25 комфорт 1008.8 972.4
03 12.06 СВ 3 н/о н/о +20.5 +17.3 82 +24 +24 комфорт 1009.4 972.9
04 12.06 СВ 2 н/о н/о +20.4 +16.7 79 +24 +24 комфорт 1009.5 973.0
05 12.06 СВ 2 10 км 1/1 750 м
[Cu hum]
+21.2 +16.7 75 +25 +27 комфорт 1009.8 973.4
06 12.06 ЮВ 3 12 км 1/1 800 м
[Cu hum]
+22.4 +16.0 67 +27 +30 душно 1009.7 973.4 +20.1 +26.9
07 12.06 ЮВ 3 н/о н/о +24.3 +17.2 65 +28 +28 душно 1009.4 973.4
08 12.06 ЮВ 4 н/о н/о +25.1 +16.1 57 +28 +28 жарко 1009.5 973.5
09 12.06 ЮВ 9
{13}
н/о н/о +27.9 +15.3 46 +31 +31 душно 1009.1 973.5
10 12.06 Ю 8
{14}
н/о н/о +28.8 +15.9 46 +32 +32 душно 1009.0 973.5
11 12.06 ЮВ 8
{14}
н/о н/о +29.4 +16.3 45 +33 +33 душно 1008.7 973.3
12 12.06 ЮВ 7
{14}
20 км 1/1 1000 м
[Cu hum]
+29.5 +16.0 44 +33 +37 душно 1008.5 973.1
13 12.06 ЮВ 7
{14}
н/о н/о +30.2 +17.0 45 +34 +34 очень
душно
1007.9 972.6
14 12.06 ЮВ 7 н/о н/о +30.2 +17.4 46 +34 +34 очень
душно
1007.8 972.5
15 12.06 ЮВ 6
{14}
н/о н/о +29.7 +16.8 46 +33 +33 душно 1007.5 972.1
16 12.06 ЮВ 7
{14}
н/о н/о +29.5 +17.3 48 +34 +34 очень
душно
1006.9 971.6
17 12.06 ЮВ 5 н/о н/о +28.4 +17.9 53 +33 +33 очень
душно
1007.4 971.9
18 12.06 ЮВ 4
{14}
17 км 1/0
[Ci fib]
+27.6 +17.9 56 +32 +32 очень
душно
1007.6 972.0 +22.1 +30.6
19 12.06 Ю 5 н/о н/о +26.4 +17.8 59 +31 +31 душно 1007.9 972.2
20 12.06 Ю 4 н/о н/о +25.1 +18.3 66 +30 +30 душно 1008.9 973.0
21 12.06 ЮЗ 1 н/о н/о +24.2 +18.8 72 +29 +29 душно 1009.5 973.5
22 12.06 ЮЗ 2 н/о н/о +23.5 +18.9 75 +28 +28 душно 1010.1 974.0
23 12.06 ЮЗ 1 н/о н/о +21.6 +18.3 82 +26 +26 душно 1010.4 974.0
00 13.06 ЮЗ 3 н/о н/о +20.2 +17.7 86 +24 +24 комфорт 1010.3 973.7
01 13.06 Ю 2 н/о н/о +19.0 +17.3 90 +21 +21 комфорт 1010.8 974.1
02 13.06 Ю 1 н/о н/о +18.3 +17.0 92 +20 +20 1010.9 974.1
03 13.06 Ю 2 н/о н/о +17.5 +16.7 95 +18 +18 1011.2 974.3
04 13.06 ЮЗ 1 н/о н/о +16.9 +16.5 97 +18 +18 1011.6 974.6
05 13.06 С 2 6000 м 1/0
[Ci fib]
+18.3 +16.9 92 +19 +21 1012.0 975.1
06 13.06 З 3 8000 м ясно +20.1 +16.2 78 +23 +27 комфорт 1012.4 975.7 +16.8 +27.7
07 13.06 З 4 н/о н/о +20.9 +16.5 76 +25 +25 комфорт 1012.5 975.9
08 13.06 З 4 н/о н/о +22.2 +17.2 73 +27 +27 душно 1012.8 976.4
09 13.06 З 3 н/о н/о +23.6 +17.7 70 +28 +28 душно 1012.6 976.4
10 13.06 СЗ 1 н/о н/о +25.0 +18.2 66 +29 +29 душно 1012.3 976.3
11 13.06 СЗ 2 н/о н/о +25.4 +18.1 64 +30 +30 душно 1012.2 976.2
12 13.06 ЮЗ 1 20 км 5/5 900 м
[Cu Sc]
+25.9 +17.9 61 +30 +40 душно 1011.5 975.6
13 13.06 Ю 2 н/о н/о +27.4 +18.6 59 +32 +32 очень
душно
1011.2 975.5
14 13.06 ЮВ 1 н/о н/о +27.2 +18.3 58 +32 +32 очень
душно
1011.1 975.4
15 13.06 ЮЗ 1 н/о н/о +28.7 +19.1 56 +34 +34 очень
душно
1010.6 975.1
16 13.06 В 1 н/о н/о +28.9 +19.1 55 +34 +34 очень
душно
1009.9 974.4
17 13.06 СЗ 1 н/о н/о +29.4 +19.6 56 +35 +35 очень
душно
1009.4 974.0
18 13.06 С 2 17 км 3/0
[Ci sp]
+27.6 +20.0 63 +34 +34 очень
душно
1009.4 973.8 +19.9 +29.7
19 13.06 С 4 н/о н/о +26.1 +19.2 66 +31 +31 очень
душно
1010.2 974.4
20 13.06 С 4 н/о н/о +25.5 +19.2 68 +31 +31 очень
душно
1010.7 974.8
21 13.06 СВ 6 н/о н/о +23.6 +19.3 77 +29 +29 душно 1011.9 975.7
22 13.06 СВ 6 н/о н/о +22.3 +17.7 75 +27 +27 душно 1012.8 976.4
23 13.06 СЗ 2 н/о н/о +22.4 +18.7 80 +28 +28 душно 1013.3 976.9
00 14.06 СЗ 5 н/о н/о +21.8 +18.8 83 +27 +27 душно 1013.3 976.8
01 14.06 СЗ 4 н/о н/о +20.6 +19.0 91 +25 +25 комфорт 1014.5 977.9
02 14.06 СЗ 4 н/о н/о +20.4 +16.5 78 +24 +24 комфорт 1015.1 978.4
03 14.06 С 3 н/о н/о +19.8 +15.8 78 +22 +22 комфорт 1015.6 978.8
04 14.06 СЗ 3 н/о н/о +19.6 +16.0 80 +22 +22 комфорт 1016.5 979.6
05 14.06 СЗ 3 9000 м ясно +20.8 +16.6 77 +25 +26 комфорт 1017.0 980.3
06 14.06 С 3 13 км 1/1 800 м
[Cu hum]
+22.1 +17.3 74 +27 +30 душно 1017.6 981.0 +19.5 +28.1
07 14.06 С 2 н/о н/о +24.2 +17.7 67 +28 +28 душно 1017.5 981.2
08 14.06 СВ 3 н/о н/о +26.1 +18.0 61 +31 +31 очень
душно
1017.4 981.3
09 14.06 СВ 4 н/о н/о +27.2 +17.9 57 +32 +32 очень
душно
1017.1 981.1
10 14.06 В 3 н/о н/о +27.7 +18.2 56 +32 +32 очень
душно
1017.1 981.2
11 14.06 В 3 н/о н/о +28.7 +18.3 53 +33 +33 очень
душно
1016.9 981.1
12 14.06 В 3 20 км 1/1 1020 м
[Cu hum]
+30.0 +17.9 48 +34 +47 очень
душно
1016.3 980.7 0.0
13 14.06 ЮВ 2 н/о н/о +30.5 +16.5 43 +34 +34 очень
душно
1015.7 980.1
14 14.06 ЮВ 3 н/о н/о +30.4 +16.4 43 +34 +34 очень
душно
1015.5 979.9
15 14.06 ЮВ 3 н/о н/о +30.6 +16.5 43 +34 +34 очень
душно
1014.7 979.2
16 14.06 ЮВ 4 н/о н/о +30.1 +17.1 46 +34 +34 очень
душно
1014.6 979.0
17 14.06 ЮВ 4 н/о н/о +29.3 +16.7 47 +33 +33 душно 1014.4 978.8
18 14.06 В 2 20 км ясно +28.4 +17.3 51 +32 +33 душно 1014.5 978.8 +21.8 +31.1 0.0
19 14.06 СВ 3 н/о н/о +26.6 +18.3 60 +31 +31 душно 1014.4 978.5
20 14.06 В 3 н/о н/о +25.5 +18.7 66 +30 +30 душно 1014.7 978.6
21 14.06 СВ 3 н/о н/о +24.2 +18.8 72 +29 +29 душно 1014.6 978.4
22 14.06 СВ 4 н/о н/о +23.5 +18.8 75 +28 +28 душно 1014.4 978.1
23 14.06 СВ 4 н/о н/о +23.1 +18.1 73 +29 +29 очень
душно
1014.0 977.7
00 15.06 СВ 3 н/о н/о +22.3 +17.8 76 +27 +27 душно 1013.7 977.3
01 15.06 СВ 4 н/о н/о +22.1 +17.6 76 +27 +27 душно 1013.0 976.6
02 15.06 СВ 3 н/о н/о +21.4 +17.7 79 +26 +26 душно 1012.7 976.2
03 15.06 СВ 4 н/о н/о +20.7 +17.6 82 +25 +25 комфорт 1012.2 975.6
04 15.06 СВ 3 н/о н/о +21.5 +17.4 77 +26 +26 душно 1011.8 975.3
05 15.06 СВ 3 7000 м 6/6 600 м
[Cu Sc]
+22.1 +17.7 76 +27 +28 душно 1011.7 975.3
06 15.06 СВ 2 8000 м 8/8 660 м
[Cu hum]
+23.6 +18.1 71 +28 +29 душно 1011.3 975.1 +20.6 +28.5
07 15.06 В 2 н/о н/о +25.4 +18.2 64 +30 +30 душно 1011.3 975.3
08 15.06 штиль 0 н/о н/о +25.8 +18.3 63 +30 +30 душно 1011.6 975.7
09 15.06 ЮВ 4 н/о н/о +27.8 +18.1 56 +33 +33 очень
душно
1011.3 975.6
10 15.06 ЮВ 4 н/о н/о +29.9 +17.3 47 +34 +34 очень
душно
1010.7 975.3
11 15.06 ЮВ 3 н/о н/о +31.3 +17.3 43 +35 +35 очень
душно
1009.9 974.7
12 15.06 ЮЗ 5 22 км 9/6 900 м
[Cu hum Cs]
+29.8 +17.6 48 +34 +37 очень
душно
1010.8 975.4
13 15.06 ЮВ 3 н/о н/о +30.6 +18.5 48 +35 +35 очень
душно
1010.1 974.8 0.0
14 15.06 ЮВ 2 н/о н/о +31.6 +16.6 41 +35 +35 очень
душно
1009.9 974.7
15 15.06 ЮВ 3 н/о н/о +31.7 +18.8 46 +37 +37 очень
душно
1009.3 974.1 0.0
16 15.06 ЮВ 4 н/о н/о +30.9 +19.2 50 +37 +37 очень
душно
1008.4 973.2 0.0
17 15.06 Ю 4 н/о н/о +31.2 +14.6 37 +33 +33 жарко 1008.4 973.2
18 15.06 ЮЗ 2 н/о н/о +29.4 +17.0 47 +33 +33 душно 1008.8 973.4 +22.9 +32.2 0.0
19 15.06 З 3 н/о н/о +27.3 +17.2 54 +31 +31 душно 1009.3 973.6
20 15.06 СЗ 5 н/о н/о +25.0 +14.8 53 +28 +28 жарко 1010.2 974.2
21 15.06 СЗ 7 н/о н/о +24.0 +15.3 58 +27 +27 жарко 1010.8 974.6
22 15.06 СЗ 10
{14}
н/о н/о +22.2 +16.5 70 +26 +26 душно 1011.7 975.3
23 15.06 СЗ 7
{15}
н/о н/о +21.1 +16.5 75 +25 +25 комфорт 1012.0 975.5

 

Местоположение метеостанции Рец (Австрия): широта 48.77 долгота 15.95 высота над уровнем моря 323 м.

В архиве по умолчанию представлена погода в Реце за последнюю неделю. Архивные данные за месяц целиком и за предыдущие месяцы, начиная с января 2011 года, Вы можете получить, выбрав интересующий диапазон дат из раскрывающегося списка и нажав кнопку "Ввод!".


*Определитесь, кто Вы:
робот инопланетянин человек

Внимание! Время в таблицах - всемирное. Для получения местного времени необходимо прибавить поправку, которая равна 1 ч.

Смотрите также архив погоды в соседних городах и на ближайших метеорологических станциях:

Погода в Кучарловице (Чехия) (16 км)
Погода в Гарс-ам-Кампе (Австрия) (29 км)
Погода в Лейзер Берге (Австрия) (38 км)
Погода в Лангенлойсе (Австрия) (38 км)
Погода на АЭС Дукованы (Чехия) (39 км)
Погода в Аллентштайге (Австрия) (44 км)
Погода в Кремс-ан-дер-Донау (Австрия) (46 км)
Погода в Замке Namest nad Oslav (Чехия) (46 км)
Погода в Штоккерау (Австрия) (47 км)
Погода в Пойсдорфе (Австрия) (51 км)

Пояснения к столбцам:

Ветер - указаны скорость ветра в м/с - средняя за 10 мин, порывы в срок и между сроками (в фигурных скобках) и направление, откуда дует ветер: С - северный, СВ - северо-восточный, В - восточный, ЮВ - юго-восточный, Ю - южный, ЮЗ - юго-западный, З - западный, СЗ - северо-западный.
Видимость - горизонтальная дальность видимости в метрах или километрах. При видимости от 1 до 10 км при отсутствии осадков обычно наблюдается дымка, при ухудшении видимости до 1 км и менее - туман. В сухую погоду видимость может ухудшаться дымом, пылью или мглою.
Явления - указаны атмосферные явления, наблюдавшиеся в срок или в последний час перед сроком; фигурными скобками обозначены явления, наблюдавшиеся между сроками (за 1-3 часа до срока); квадратными скобками обозначены град или гололедные отложения с указанием их диаметра в мм.
Облачность - указаны через наклонную черту общая и нижняя облачность в баллах и высота нижней границы облаков в метрах; квадратными скобками обозначены формы облаков: Ci - перистые, Cs - перисто-слоистые, Cc - перисто-кучевые, Ac - высококучевые, As - высокослоистые, Sc - слоисто-кучевые, Ns - слоисто-дождевые, Cu - кучевые, Cb - кучево-дождевые. Подробнее классификацию облаков см. в Атласе облаков (PDF).
T - Температура воздуха - температура, измеренная на высоте 2 м над землей.
Td - Температура точки росы - температура, при понижении до которой содержащийся в воздухе водяной пар достигнет насыщения.
f - Относительная влажность воздуха - влажноcть воздуха, измеренная на высоте 2 м над землей.
Te - Эффективная температура - температура, которую ощущает одетый по сезону человек в тени. Характеристика душности погоды. При расчете учитывается влияние влажности воздуха и скорости ветра на теплоощущения человека.
Tes - Эффективная температура на солнце - температура, которую ощущает человек, с поправкой на солнечный нагрев. Характеристика знойности погоды. Зависит от высоты солнца над горизонтом, облачности и скорости ветра. Ночью, в пасмурную погоду, а также при ветре 12 м/с и более поправка равна нулю.
P - Атмосферное давление - приведенное к уровню моря атмосферное давление.
Po - Атмосферное давление - измеренное на уровне метеостанции атмосферное давление.
Tmin - Минимальная температура - минимум температуры воздуха на высоте 2 м над землей.
Tmax - Максимальная температура - максимум температуры воздуха на высоте 2 м над землей.
R - Количество осадков - Количество выпавших осадков за период времени, мм. При наведении курсора мыши на число - период времени, за который выпало указанное количество осадков.
R24 - Количество осадков - Количество выпавших осадков за 24 часа, мм.
S - Снежный покров - Высота снежного покрова, см. При наведении курсора мыши на число - состояние снежного покрова и степень покрытия местности в баллах.